Location: Barrio de Canyet
(41.4665°N, 2.2381°E)
Time: 21:28:07
(UTC+00:00)

STARLINK-1217 - Pass Details

Date: 09 April 2020
Orbit: 378 x 381 km, 53.0° (Epoch: 31 May)

Event Time Altitude Azimuth Distance (km) Brightness Sun altitude
Rises 19:46:55 0° 313° (NW) 2,204 8.2 -15.3°
Reaches altitude 10° 19:49:03 10° 323° (NW) 1,356 6.6 -15.6°
Maximum altitude 19:51:51 33° 30° (NNE) 641 3.9 -16.1°
Enters shadow 19:52:27 30° 57° (ENE) 692 3.9 -16.2°
